Farmington, NM

10:24 AM MDT on September 25, 2016 (GMT -0600)
Four Corners Regional

Weather History for KFMN - July, 2013

Change the Weather History Date:

Wednesday, July 10, 2013

  Actual Average Record
Temperature  
Mean Temperature 83 °F -  
Max Temperature 100 °F 91 °F 100 °F (2003)
Min Temperature 66 °F 59 °F 50 °F (2003)
Cooling Degree Days 18    
Growing Degree Days 33 (Base 50)    
Moisture  
Dew Point 46 °F    
Average Humidity 28    
Maximum Humidity 45    
Minimum Humidity 7    
Precipitation  
Precipitation 0.00 in - - ()
Sea Level Pressure  
Sea Level Pressure 29.94 in    
Wind  
Wind Speed 9 mph (ESE)    
Max Wind Speed 29 mph    
Max Gust Speed 38 mph    
Visibility 9 miles    
Events      
Averages and records for this station are not official NWS values.
T = Trace of Precipitation, MM = Missing Value Source: NWS Daily Summary

Daily Weather History Graph

Daily Weather History Graph

Search for Another Location

Airport or City:

Trip Planner

Search our weather history database for the weather conditions in past years. The results will help you decide how hot, cold, wet, or windy it might be!

Date:

Astronomy

Jul. 10, 2013 Rise Set
Actual Time 6:02 AM MDT 8:33 PM MDT
Civil Twilight 5:32 AM MDT 9:03 PM MDT
Nautical Twilight 4:55 AM MDT 9:41 PM MDT
Astronomical Twilight 4:13 AM MDT 10:22 PM MDT
Moon 8:21 AM MDT (7/10) 9:50 PM MDT (7/10)
Length of Visible Light 15h 31m
Length of Day
14h 30m
Waxing Crescent, 5% of the Moon is Illuminated
Jul 10
Waxing Crescent
Jul 15
First Quarter
Jul 22
Full
Jul 29
Last Quarter
Aug 6
New

Hourly Weather History & Observations

Time (MDT) Temp. Dew Point Humidity Pressure Visibility Wind Dir Wind Speed Gust Speed Precip Events Conditions
12:53 AM 80.1 °F 44.1 °F 28% 29.92 in 10.0 mi SSW 4.6 mph - N/A   Clear
1:53 AM 77.0 °F 42.1 °F 29% 29.92 in 10.0 mi Calm Calm - N/A   Clear
2:53 AM 73.0 °F 45.0 °F 37% 29.94 in 10.0 mi East 6.9 mph - N/A   Clear
3:53 AM 72.0 °F 44.1 °F 37% 29.95 in 10.0 mi East 9.2 mph - N/A   Clear
4:53 AM 70.0 °F 44.1 °F 39% 29.96 in 10.0 mi East 8.1 mph - N/A   Clear
5:53 AM 68.0 °F 46.0 °F 45% 29.98 in 10.0 mi East 9.2 mph - N/A   Clear
6:53 AM 70.0 °F 46.0 °F 42% 29.99 in 10.0 mi East 5.8 mph - N/A   Clear
7:53 AM 73.0 °F 46.9 °F 39% 30.00 in 10.0 mi East 6.9 mph - N/A   Clear
8:53 AM 80.1 °F 48.0 °F 32% 30.00 in 10.0 mi East 8.1 mph - N/A   Clear
9:53 AM 82.9 °F 50.0 °F 32% 30.01 in 10.0 mi SSE 8.1 mph 16.1 mph N/A   Clear
10:53 AM 87.1 °F 48.0 °F 26% 29.99 in 10.0 mi ESE 9.2 mph - N/A   Clear
11:53 AM 90.0 °F 48.0 °F 24% 29.96 in 10.0 mi Variable 4.6 mph - N/A   Clear
12:53 PM 93.9 °F 43.0 °F 17% 29.92 in 10.0 mi Calm Calm - N/A   Clear
1:53 PM 95.0 °F 39.9 °F 15% 29.89 in 10.0 mi West 6.9 mph - N/A   Partly Cloudy
2:53 PM 98.1 °F 39.0 °F 13% 29.87 in 10.0 mi Variable 5.8 mph - N/A   Clear
3:53 PM 98.1 °F 35.1 °F 11% 29.84 in 10.0 mi West 5.8 mph - N/A   Clear
4:44 PM 93.2 °F 46.4 °F 20% 30.07 in 6.0 mi SSE 25.3 mph 38.0 mph N/A   Haze
4:53 PM 91.9 °F 46.9 °F 21% 29.84 in 6.0 mi SSE 25.3 mph 35.7 mph N/A   Haze
5:53 PM 91.9 °F 44.1 °F 19% 29.83 in 6.0 mi SSE 15.0 mph 28.8 mph N/A   Haze
6:53 PM 89.1 °F 45.0 °F 22% 29.86 in 1.5 mi East 28.8 mph 36.8 mph N/A   Haze
6:56 PM 87.8 °F 44.6 °F 22% 30.09 in 6.0 mi East 28.8 mph 36.8 mph N/A   Haze
7:53 PM 81.0 °F 48.9 °F 33% 29.92 in 6.0 mi East 26.5 mph 32.2 mph N/A   Haze
8:53 PM 78.1 °F 48.9 °F 36% 29.94 in 10.0 mi ENE 10.4 mph - N/A   Clear
9:53 PM 73.9 °F 51.1 °F 45% 29.94 in 10.0 mi ENE 10.4 mph - N/A   Clear
10:53 PM 73.9 °F 51.1 °F 45% 29.94 in 10.0 mi ENE 11.5 mph - N/A   Clear
11:53 PM 73.0 °F 50.0 °F 44% 29.98 in 10.0 mi SW 10.4 mph - N/A   Clear